Acazulco, Mexico

3:01 AM CST on February 26, 2017 (GMT -0600)
Lic Adolfo Lopez Mateos International

Weather History for MMTO - February, 2013

Change the Weather History Date:

Saturday, February 23, 2013

  Actual Average Record
Temperature  
Mean Temperature 52 °F -  
Max Temperature 73 °F 70 °F 78 °F (2016)
Min Temperature 32 °F 34 °F 26 °F (2009)
Degree Days  
Heating Degree Days 12    
Growing Degree Days 2 (Base 50)    
Moisture  
Dew Point 23 °F    
Average Humidity 42    
Maximum Humidity 87    
Minimum Humidity 6    
Precipitation  
Precipitation 0.00 in - - ()
Sea Level Pressure  
Sea Level Pressure 30.12 in    
Wind  
Wind Speed 3 mph ()    
Max Wind Speed 17 mph    
Max Gust Speed -    
Visibility 6.9 miles    
Events      
Averages and records for this station are not official NWS values.
T = Trace of Precipitation, MM = Missing Value Source: Averaged Metar Reports

Daily Weather History Graph

Daily Weather History Graph

Search for Another Location

Airport or City:

Trip Planner

Search our weather history database for the weather conditions in past years. The results will help you decide how hot, cold, wet, or windy it might be!

Date:

Astronomy

Feb. 23, 2013 Rise Set
Actual Time 7:01 AM CST 6:41 PM CST
Civil Twilight 6:39 AM CST 7:03 PM CST
Nautical Twilight 6:13 AM CST 7:29 PM CST
Astronomical Twilight 5:48 AM CST 7:55 PM CST
Moon 5:01 PM CST (2/23) 5:14 AM CST (2/23)
Length of Visible Light 12h 24m
Length of Day
11h 39m
Waxing Gibbous, 95% of the Moon is Illuminated
Feb 23
Waxing Gibbous
Feb 25
Full
Mar 4
Last Quarter
Mar 11
New
Mar 19
First Quarter

Hourly Weather History & Observations

Time (CST) Temp. Windchill Dew Point Humidity Pressure Visibility Wind Dir Wind Speed Gust Speed Precip Events Conditions
12:45 AM 41.0 °F 39.0 °F 28.4 °F 61% 30.33 in 6.0 mi NE 3.5 mph - N/A   Clear
1:45 AM 39.2 °F - 26.6 °F 61% 30.31 in 5.0 mi Calm Calm - N/A   Clear
2:45 AM 39.2 °F - 28.4 °F 65% 29.77 in 4.0 mi Calm Calm - N/A   Clear
3:45 AM 37.4 °F - 30.2 °F 75% 30.28 in 4.0 mi Calm Calm - N/A   Clear
4:45 AM 33.8 °F - 28.4 °F 81% 30.28 in 3.0 mi Calm Calm - N/A   Clear
5:45 AM 33.8 °F - 30.2 °F 87% 29.85 in 3.0 mi Calm Calm - N/A   Clear
6:45 AM 32.0 °F - 28.4 °F 87% 30.30 in 2.0 mi Calm Calm - N/A   Clear
7:45 AM 32.0 °F 27.5 °F 28.4 °F 87% 30.31 in 6.0 mi SE 4.6 mph - N/A   Clear
8:45 AM 44.6 °F 41.4 °F 28.4 °F 53% 29.94 in 6.0 mi ESE 5.8 mph - N/A   Clear
9:45 AM 55.4 °F - 28.4 °F 36% 30.34 in 7.0 mi Calm Calm - N/A   Clear
10:45 AM 62.6 °F - 23.0 °F 22% 30.34 in 12.0 mi NNE 3.5 mph - N/A   Clear
11:45 AM 69.8 °F - 12.2 °F 11% 29.75 in 12.0 mi SSE 4.6 mph - N/A   Clear
12:45 PM 69.8 °F - 8.6 °F 9% 30.27 in 8.0 mi ENE 4.6 mph - N/A   Scattered Clouds
1:45 PM 73.4 °F - 1.4 °F 6% 30.24 in 8.0 mi West 5.8 mph - N/A   Scattered Clouds
2:46 PM 73.4 °F - 8.6 °F 8% 29.70 in 8.0 mi West 11.5 mph - N/A   Scattered Clouds
3:45 PM 73.4 °F - 12.2 °F 10% 30.19 in 8.0 mi WNW 17.3 mph - N/A   Scattered Clouds
4:41 PM 71.6 °F - 14.0 °F 11% 30.19 in 8.0 mi West 13.8 mph - N/A   Scattered Clouds
5:44 PM 68.0 °F - 17.6 °F 15% 29.80 in 8.0 mi WNW 15.0 mph - N/A   Scattered Clouds
6:45 PM 62.6 °F - 21.2 °F 20% 30.24 in 8.0 mi West 10.4 mph - N/A   Partly Cloudy
7:46 PM 57.2 °F - 23.0 °F 27% 30.25 in 8.0 mi NE 4.6 mph - N/A   Scattered Clouds
8:44 PM 53.6 °F - 26.6 °F 35% 29.90 in 8.0 mi WNW 6.9 mph - N/A   Partly Cloudy
9:45 PM 50.0 °F - 30.2 °F 47% 30.30 in 8.0 mi NNE 5.8 mph - N/A   Partly Cloudy
10:45 PM 51.8 °F - 32.0 °F 47% 30.30 in 8.0 mi North 3.5 mph - N/A   Clear
11:45 PM 48.2 °F - 30.2 °F 50% 29.74 in 8.0 mi Calm Calm - N/A   Clear